Flag for Germany Weather past 2 weeks in Bocholt, North Rhine-Westphalia, Germany

Now
66 °F

Scattered clouds.


Feels Like: 66 °F
Forecast: 54 / 67 °F
Wind: 5 mph from West

Location: Niederrhein

Current Time: Sep 30, 2014 at 6:47:35 PM

Latest Report: Sep 30, 2014 at 5:50 PM


Visibility: N/A

Pressure: 30.27 "Hg

Humidity: 73%

Dew point: 57 °F

Location of BocholtLocation

Historic Weather in Bocholt — Graph

°F

Bocholt temperature yesterday

Maximum temperature yesterday: 72 °F (at 1:50 PM)
Minimum temperature yesterday: 57 °F (at 4:50 AM)
Average temperature yesterday: 64 °F

Past Weeks' High & Low Weather Summary

 TemperatureHumidityPressure
High79 °F (Sep 17, 3:50 PM)100% (Sep 15, 11:20 PM)30.39 "Hg (Sep 15, 11:20 PM)
Low45 °F (Sep 23, 4:50 AM)48% (Sep 17, 3:50 PM)29.83 "Hg (Sep 18, 4:50 AM)
Average62 °F83%30.06 "Hg
* Reported Sep 15 5:20 PM — Sep 30 5:50 PM, Bocholt, Weather by CustomWeather, © 2014

Note: Actual official high and low records may vary slightly from our data, if they occured in-between our weather recording intervals... More about our weather records

Advertising

Bocholt weather history for previous 24 hours

 ConditionsComfort  
Time TempWeatherWind HumidityBarometerVisibility
5:50 PM
Sep 30
66 °FScattered clouds.5 mph73%30.27 "HgN/A
5:20 PM68 °FScattered clouds.5 mph69%30.27 "HgN/A
4:50 PM68 °FScattered clouds.7 mph69%30.27 "HgN/A
4:20 PM68 °FScattered clouds.9 mph69%30.27 "Hg6 mi
3:50 PM68 °FScattered clouds.7 mph73%30.27 "HgN/A
3:20 PM68 °FScattered clouds.8 mph73%30.27 "Hg6 mi
2:50 PM66 °FPartly sunny.9 mph78%30.27 "Hg6 mi
2:20 PM66 °FPartly sunny.8 mph78%30.27 "Hg6 mi
1:50 PM66 °FPartly sunny.9 mph78%30.27 "Hg5 mi
1:20 PM64 °FPartly sunny.9 mph83%30.27 "Hg5 mi
12:50 PM64 °FPartly sunny.10 mph83%30.27 "Hg4 mi
12:20 PM64 °FPartly sunny.10 mph88%30.27 "Hg4 mi
11:50 AM64 °FPartly sunny.9 mph83%30.24 "Hg4 mi
11:20 AM64 °FBroken clouds.10 mph83%30.24 "Hg4 mi
10:50 AM63 °FFog.9 mph100%30.24 "Hg3 mi
10:20 AM63 °FFog.9 mph100%30.24 "Hg2 mi
9:50 AM61 °FFog.8 mph100%30.24 "Hg2 mi
9:20 AM61 °FFog.6 mph100%30.24 "Hg2 mi
8:50 AM61 °FFog.7 mph100%30.24 "Hg2 mi
8:20 AM61 °FFog.5 mph100%30.21 "Hg2 mi
7:50 AM61 °FFog.6 mph100%30.21 "Hg2 mi
7:20 AM61 °FFog.7 mph100%30.21 "Hg3 mi
6:50 AM61 °FFog.6 mph100%30.21 "Hg3 mi
6:20 AM61 °FPassing clouds.5 mph100%30.21 "Hg4 mi
5:50 AM61 °FPassing clouds.5 mph100%30.21 "Hg4 mi
5:20 AM61 °FPassing clouds.5 mph100%30.21 "Hg4 mi
4:50 AM59 °FPassing clouds.5 mph100%30.18 "Hg4 mi
10:50 PM
Sep 29
61 °FClear.5 mph100%30.21 "Hg4 mi
10:20 PM61 °FPassing clouds.5 mph100%30.21 "Hg4 mi
9:50 PM61 °FPassing clouds.6 mph100%30.21 "Hg4 mi
9:20 PM61 °FPassing clouds.5 mph100%30.21 "Hg4 mi
8:50 PM63 °FPartly sunny.6 mph100%30.21 "Hg5 mi
8:20 PM63 °FPartly sunny.6 mph100%30.18 "Hg4 mi
7:50 PM63 °FLight rain. Fog.5 mph100%30.18 "Hg3 mi
7:20 PM63 °FLight rain. Fog.5 mph100%30.18 "Hg3 mi
6:50 PM63 °FLight rain. Fog.6 mph100%30.18 "Hg3 mi
6:20 PM64 °FLight rain. Fog.6 mph100%30.18 "Hg3 mi
Weather by CustomWeather, © 2014

See weather overviewHow to use our weather pages